Regional Weather Roundup
Issued by NWS Mt. Holly, NJ

Home | Current Version | Previous Version | Text Only | Print | Product List | Glossary On
Versions: 1 2 3 4 5 6 7 8 9 10 11 12 13 14 15 16 17 18 19 20 21 22 23 24 25 26 27 28 29 30 31 32 33 34 35 36 37 38 39 40 41 42 43 44 45 46 47 48 49 50
562
ASUS41 KPHI 301412
RWRPHI

REGIONAL WEATHER ROUNDUP
NATIONAL WEATHER SERVICE MOUNT HOLLY NJ
1000 AM EDT TUE MAY 30 2017

NOTE:  "FAIR" INDICATES FEW OR NO CLOUDS BELOW 12,000 FEET WITH NO
SIGNIFICANT WEATHER AND/OR OBSTRUCTIONS TO VISIBILITY.

 * = STATION DOES NOT REPORT PRECIPITATION (E.G. RAIN, SNOW, ETC.)
        OR FOG.

NJZ015>026-301500-
SOUTHERN NEW JERSEY

CITY           SKY/WX    TMP DP  RH WIND       PRES   REMARKS
POMONA         NOT AVBL
WILDWOOD*      CLOUDY    59  57  93 E12       30.15S
MILLVILLE      CLOUDY    59  58  96 E12       30.14S
WRIGHTSTOWN    CLOUDY    59  56  88 SE9       30.13R
MOUNT HOLLY    CLOUDY    59  55  87 SE5       30.15R
TRENTON        CLOUDY    59  55  87 SE7       30.15R

$$
NJZ001>014-301500-
NORTHERN NEW JERSEY

CITY           SKY/WX    TMP DP  RH WIND       PRES   REMARKS
SUSSEX         CLOUDY    57  54  89 SE7       30.16R
ANDOVER*         N/A     56  53  90 VRB3      30.15S
MORRISTOWN     CLOUDY    57  54  88 SE6       30.17S FOG
NEWARK         CLOUDY    57  53  86 E7        30.17S
TETERBORO      CLOUDY    59  53  80 S7        30.16S
CALDWELL       CLOUDY    58  54  86 S6        30.17S
SOMERVILLE     CLOUDY    59  54  83 SE3       30.14F
ALLAIRE*       CLOUDY    56  54  93 SE7       30.18S
TOMS RIVER*    CLOUDY    58  55  90 SE8       30.17R

$$
PAZ043-044-047-054-055-060>062-066>071-301500-
EASTERN PENNSYLVANIA

CITY           SKY/WX    TMP DP  RH WIND       PRES   REMARKS
PHILADELPHIA   CLOUDY    59  55  87 E8        30.15F
NORTH PHILA    CLOUDY    59  55  87 SE7       30.17S
BLUE BELL*     CLOUDY    55  54  94 E7        30.16F
DOYLESTOWN     CLOUDY    56  55  97 VRB3      30.15S
QUAKERTOWN*    CLOUDY    55  55 100 SE6       30.15F
PERKASIE*      CLOUDY    55  55 100 SE6       30.16S
POTTSTOWN      CLOUDY    57  54  89 VRB3      30.15F
LANCASTER      CLOUDY    59  58  96 SE10      30.12S
COATESVILLE    CLOUDY    55  55 100 E7        30.14F
READING        CLOUDY    58  56  93 S5        30.12F
ALLENTOWN      CLOUDY    58  54  86 SE8       30.14F
MOUNT POCONO   FOG       51  51 100 SE9       30.13S VSB 1/4
HAZLETON       CLOUDY    54  54 100 SE10      30.14F FOG
LEHIGHTON      CLOUDY    55  54  94 CALM      30.15S FOG
WILKES BARRE   CLOUDY    60  55  83 VRB6      30.09F

$$
DEZALL-MDZ008-012-015-019-020-301500-
DELAWARE AND EASTERN MARYLAND

CITY           SKY/WX    TMP DP  RH WIND       PRES   REMARKS
WILMINGTON     CLOUDY    59  56  89 SE7       30.15R
DOVER          LGT RAIN  60  60 100 E6        30.12S
GEORGETOWN     CLOUDY    62  59  90 E9        30.12F
EASTON         CLOUDY    64  59  82 SE8       30.14F
ABERDEEN       LGT RAIN  59  58  97 E6        30.13F VSB 1
PATUXENT       CLOUDY    64  64 100 SE9       30.08F
OCEAN CITY     CLOUDY    60  59  96 E12G17    30.12F
WALLOPS ISLAND CLOUDY    63  62  97 E10       30.11S
CAMBRIDGE      CLOUDY    63  61  94 SE10      30.10F
SALISBURY      CLOUDY    62  62 100 SE8       30.11R

$$
PAZ001-021-NYZ056-072-MDZ011-DCZ001-301500-
OTHER NEARBY LOCATIONS

CITY           SKY/WX    TMP DP  RH WIND       PRES   REMARKS
HARRISBURG     CLOUDY    59  58  96 E10       30.10F
STATE COLLEGE  LGT RAIN  63  61  94 S6        30.04R
WILLIAMSPORT   CLOUDY    61  56  83 E10       30.06S
BINGHAMTON     LGT RAIN  55  55 100 SE8       30.07S
NEW YORK CITY  CLOUDY    58  53  84 VRB5      30.19S
BALTIMORE      CLOUDY    60  60 100 SE9       30.10F
WASHINGTON DC  CLOUDY    64  62  93 E6        30.10S

$$




USA.gov is the U.S. government's official web portal to all federal, state and local government web resources and services.